TimeCDT,TemperatureF,Dew PointF,Humidity,Sea Level PressureIn,VisibilityMPH,Wind Direction,Wind SpeedMPH,Gust SpeedMPH,PrecipitationIn,Events,Conditions,WindDirDegrees,DateUTC
12:52 AM,43.0,39.0,86,30.30,-9999.0,Calm,Calm,-,N/A,,Unknown,0,2013-10-13 05:52:00
1:52 AM,42.1,37.0,82,30.32,-9999.0,Calm,Calm,-,N/A,,Unknown,0,2013-10-13 06:52:00
2:52 AM,39.9,37.0,89,30.33,-9999.0,Calm,Calm,-,N/A,,Unknown,0,2013-10-13 07:52:00
3:52 AM,39.0,36.0,89,30.34,-9999.0,Calm,Calm,-,N/A,,Unknown,0,2013-10-13 08:52:00
4:52 AM,39.9,37.0,89,30.34,-9999.0,Calm,Calm,-,N/A,,Unknown,0,2013-10-13 09:52:00
5:52 AM,41.0,37.0,86,30.36,-9999.0,Calm,Calm,-,N/A,,Unknown,0,2013-10-13 10:52:00
6:52 AM,41.0,37.0,86,30.39,-9999.0,Calm,Calm,-,N/A,,Unknown,0,2013-10-13 11:52:00
7:52 AM,42.1,37.0,82,30.41,-9999.0,Calm,Calm,-,N/A,,Unknown,0,2013-10-13 12:52:00
8:52 AM,50.0,39.0,66,30.44,-9999.0,North,3.5,-,N/A,,Unknown,360,2013-10-13 13:52:00
9:52 AM,55.9,37.0,49,30.45,-9999.0,ENE,4.6,-,N/A,,Unknown,60,2013-10-13 14:52:00
10:52 AM,62.1,37.0,39,30.45,-9999.0,Variable,4.6,-,N/A,,Unknown,0,2013-10-13 15:52:00
11:52 AM,66.9,32.0,27,30.43,-9999.0,NE,3.5,-,N/A,,Unknown,50,2013-10-13 16:52:00
12:52 PM,69.1,30.0,23,30.42,-9999.0,NE,11.5,16.1,N/A,,Unknown,40,2013-10-13 17:52:00
1:52 PM,70.0,30.9,24,30.40,-9999.0,ENE,10.4,-,N/A,,Unknown,60,2013-10-13 18:52:00
2:52 PM,71.1,30.9,23,30.37,-9999.0,NE,9.2,-,N/A,,Unknown,40,2013-10-13 19:52:00
3:52 PM,71.1,30.9,23,30.36,-9999.0,Variable,6.9,-,N/A,,Unknown,0,2013-10-13 20:52:00
4:52 PM,70.0,32.0,25,30.34,-9999.0,NE,5.8,-,N/A,,Unknown,50,2013-10-13 21:52:00
5:52 PM,68.0,33.1,27,30.34,-9999.0,ENE,4.6,-,N/A,,Unknown,60,2013-10-13 22:52:00
6:52 PM,60.1,36.0,41,30.35,-9999.0,NE,3.5,-,N/A,,Unknown,50,2013-10-13 23:52:00
7:52 PM,52.0,39.0,61,30.37,-9999.0,Calm,Calm,-,N/A,,Unknown,0,2013-10-14 00:52:00
8:52 PM,57.0,34.0,42,30.36,-9999.0,NE,5.8,-,N/A,,Unknown,40,2013-10-14 01:52:00
9:52 PM,55.9,33.1,42,30.36,-9999.0,NE,4.6,-,N/A,,Unknown,50,2013-10-14 02:52:00
10:52 PM,55.0,33.1,43,30.36,-9999.0,ENE,4.6,-,N/A,,Unknown,60,2013-10-14 03:52:00
11:52 PM,53.1,33.1,47,30.34,-9999.0,Calm,Calm,-,N/A,,Unknown,0,2013-10-14 04:52:00